Weather History for Toledo, OH

Change the Weather History Date:

Monday, August 11, 2014

  Actual Average Record
Temperature  
Mean Temperature 71 °F 72 °F  
Max Temperature 76 °F 83 °F 97 °F (1944)
Min Temperature 65 °F 62 °F 45 °F (1967)
Degree Days  
Heating Degree Days 0 0  
Month to date heating degree days 0 0  
Since 1 June heating degree days 25 38  
Since 1 July heating degree days 9 3  
Cooling Degree Days 6 7  
Month to date cooling degree days 60 86  
Year to date cooling degree days 450 574  
Since 1 June cooling degree days 388 521  
Growing Degree Days 20 (Base 50)    
Moisture  
Dew Point 68 °F    
Average Humidity 92    
Maximum Humidity 100    
Minimum Humidity 84    
Precipitation  
Precipitation 2.04 in 0.09 in 2.04 in (2014)
Month to date precipitation 2.13 1.17  
Year to date precipitation 20.79 21.34  
Snow  
Snow 0.00 in 0.00 in - ()
Month to date snowfall 0.0 0.0  
Since 1 June snowfall 0.0 0.0  
Since 1 July snowfall 0.0 0.0  
Snow Depth 0.00 in    
Sea Level Pressure  
Sea Level Pressure 29.83 in    
Wind  
Wind Speed 4 mph (ENE)    
Max Wind Speed 14 mph    
Max Gust Speed 35 mph    
Visibility 6 miles    
Events Rain , Thunderstorm    
T = Trace of Precipitation, MM = Missing Value Source: NWS Daily Summary

Daily Weather History Graph

Daily Weather History Graph

Search for Another Location

Airport:

Trip Planner

Search our weather history database for the weather conditions in past years. The results will help you decide how hot, cold, wet, or windy it might be!

Date:

Astronomy

Aug. 11, 2014 Rise Set
Actual Time 6:39 AM EDT 8:40 PM EDT
Civil Twilight 6:09 AM EDT 9:10 PM EDT
Nautical Twilight 5:32 AM EDT 9:47 PM EDT
Astronomical Twilight 4:52 AM EDT 10:27 PM EDT
Moon 9:05 PM EDT (8/11) 7:45 AM EDT (8/11)
Length of Visible Light 15h 00m
Length of Day
14h 00m
Full, 99% of the Moon is Illuminated
Aug 11
Full
Aug 17
Last Quarter
Aug 25
New
Sep 2
First Quarter
Sep 8
Full

Hourly Weather History & Observations

Time (EDT) Temp. Dew Point Humidity Pressure Visibility Wind Dir Wind Speed Gust Speed Precip Events Conditions
12:52 AM 71.1 °F 66.9 °F 87% 29.98 in 8.0 mi Calm Calm - N/A   Clear
1:52 AM 69.1 °F 66.0 °F 90% 29.96 in 7.0 mi Calm Calm - N/A   Clear
2:52 AM 68.0 °F 66.0 °F 93% 29.94 in 5.0 mi Calm Calm - N/A   Clear
3:52 AM 66.9 °F 66.0 °F 97% 29.92 in 6.0 mi Calm Calm - N/A   Mostly Cloudy
4:52 AM 69.1 °F 66.0 °F 90% 29.91 in 7.0 mi Calm Calm - N/A   Mostly Cloudy
5:52 AM 69.1 °F 66.0 °F 90% 29.90 in 8.0 mi ENE 3.5 mph - N/A   Overcast
6:52 AM 69.1 °F 66.0 °F 90% 29.89 in 8.0 mi Calm Calm - N/A   Overcast
6:59 AM 69.8 °F 66.2 °F 88% 29.91 in 7.0 mi Calm Calm - N/A   Overcast
7:28 AM 69.8 °F 66.2 °F 88% 29.90 in 8.0 mi Calm Calm - N/A Thunderstorm Overcast
7:52 AM 70.0 °F 66.9 °F 90% 29.88 in 4.0 mi Calm Calm - 0.00 in Rain , Thunderstorm Light Rain
7:59 AM 69.8 °F 66.2 °F 88% 29.89 in 1.8 mi Calm Calm - 0.01 in Rain , Thunderstorm Rain
8:06 AM 68.0 °F 66.2 °F 94% 29.89 in 0.8 mi East 3.5 mph - 0.07 in Rain , Thunderstorm Heavy Rain
8:12 AM 68.0 °F 66.2 °F 94% 29.88 in 1.2 mi East 3.5 mph - 0.11 in Rain , Thunderstorm Heavy Rain
8:25 AM 68.0 °F 66.2 °F 94% 29.89 in 1.2 mi East 4.6 mph - 0.16 in Rain , Thunderstorm Rain
8:52 AM 68.0 °F 68.0 °F 100% 29.88 in 1.0 mi Calm Calm - 0.45 in Rain , Thunderstorm Heavy Thunderstorms and Rain
9:12 AM 68.0 °F 68.0 °F 100% 29.88 in 1.0 mi Calm Calm - 0.25 in Rain , Thunderstorm Heavy Thunderstorms and Rain
9:30 AM 69.8 °F 68.0 °F 94% 29.89 in 1.5 mi SSE 5.8 mph - 0.32 in Rain , Thunderstorm Thunderstorms and Rain
9:42 AM 68.0 °F 68.0 °F 100% 29.89 in 1.5 mi Variable 5.8 mph - 0.44 in Rain , Thunderstorm Heavy Thunderstorms and Rain
9:52 AM 66.9 °F 66.0 °F 97% 29.87 in 1.5 mi ESE 4.6 mph - 0.54 in Rain , Thunderstorm Heavy Thunderstorms and Rain
9:57 AM 66.2 °F 66.2 °F 100% 29.88 in 2.0 mi ESE 8.1 mph - 0.04 in Rain , Thunderstorm Thunderstorms and Rain
10:17 AM 66.2 °F 66.2 °F 100% 29.87 in 1.0 mi ENE 4.6 mph - 0.24 in Rain , Thunderstorm Heavy Thunderstorms and Rain
10:52 AM 66.9 °F 66.0 °F 97% 29.85 in 1.2 mi ENE 3.5 mph - 0.60 in Rain Heavy Rain
10:59 AM 66.2 °F 66.2 °F 100% 29.86 in 1.5 mi Calm Calm - 0.09 in Rain Light Rain
11:04 AM 66.2 °F 66.2 °F 100% 29.86 in 8.0 mi NE 4.6 mph - 0.09 in Rain Light Rain
11:15 AM 66.2 °F 66.2 °F 100% 29.85 in 10.0 mi NE 4.6 mph - 0.09 in Rain , Thunderstorm Light Rain
11:22 AM 66.2 °F 66.2 °F 100% 29.85 in 10.0 mi ENE 4.6 mph - 0.09 in Rain , Thunderstorm Light Rain
11:29 AM 66.2 °F 66.2 °F 100% 29.85 in 10.0 mi NE 5.8 mph - 0.09 in   Overcast
11:52 AM 68.0 °F 66.9 °F 96% 29.84 in 9.0 mi ENE 5.8 mph - 0.09 in Rain Light Rain
12:00 PM 68.0 °F 68.0 °F 100% 29.85 in 3.0 mi ENE 5.8 mph - 0.01 in Rain , Thunderstorm Light Rain
12:15 PM 69.8 °F 68.0 °F 94% 29.85 in 5.0 mi East 10.4 mph - 0.01 in Rain Light Rain
12:25 PM 69.8 °F 69.8 °F 100% 29.85 in 1.8 mi East 8.1 mph - 0.01 in Rain Light Rain
12:37 PM 69.8 °F 68.0 °F 94% 29.85 in 0.8 mi East 8.1 mph - 0.08 in Rain Heavy Rain
12:45 PM 69.8 °F 68.0 °F 94% 29.85 in 1.5 mi East 8.1 mph - 0.17 in Rain Light Rain
12:47 PM 69.8 °F 68.0 °F 94% 29.85 in 3.0 mi East 6.9 mph - 0.17 in Rain Light Rain
12:52 PM 69.1 °F 68.0 °F 96% 29.84 in 4.0 mi East 8.1 mph - 0.18 in Rain Light Rain
1:02 PM 69.8 °F 68.0 °F 94% 29.84 in 3.0 mi East 10.4 mph - N/A Rain Rain
1:15 PM 69.8 °F 68.0 °F 94% 29.83 in 2.5 mi ENE 9.2 mph - 0.07 in Rain Heavy Rain
1:37 PM 69.8 °F 68.0 °F 94% 29.81 in 5.0 mi ENE 11.5 mph - 0.15 in Rain Light Rain
1:52 PM 69.1 °F 68.0 °F 96% 29.81 in 5.0 mi ENE 5.8 mph - 0.17 in Rain Light Rain
1:59 PM 69.8 °F 68.0 °F 94% 29.81 in 9.0 mi North - - 0.00 in Rain Light Rain
2:13 PM 69.8 °F 69.8 °F 100% 29.81 in 1.8 mi ENE 5.8 mph - 0.01 in Rain Light Rain
2:22 PM 69.8 °F 69.8 °F 100% 29.80 in 3.0 mi East 3.5 mph - 0.01 in   Overcast
2:52 PM 72.0 °F 71.1 °F 97% 29.78 in 6.0 mi East 4.6 mph - 0.01 in   Overcast
3:52 PM 72.0 °F 70.0 °F 93% 29.75 in 5.0 mi Calm Calm - 0.00 in Rain Light Rain
4:23 PM 71.6 °F 71.6 °F 100% 29.76 in 5.0 mi West 5.8 mph - 0.00 in Thunderstorm Overcast
4:52 PM 72.0 °F 70.0 °F 93% 29.75 in 6.0 mi Calm Calm - 0.00 in Thunderstorm Overcast
5:04 PM 73.4 °F 69.8 °F 88% 29.75 in 10.0 mi Calm Calm - N/A Thunderstorm Overcast
5:07 PM 73.4 °F 69.8 °F 88% 29.75 in 10.0 mi Calm Calm - N/A   Overcast
5:31 PM 73.4 °F 71.6 °F 94% 29.74 in 5.0 mi WNW 4.6 mph - N/A   Overcast
5:52 PM 73.9 °F 71.1 °F 91% 29.73 in 8.0 mi West 4.6 mph - N/A   Overcast
6:52 PM 73.0 °F 70.0 °F 90% 29.73 in 10.0 mi NW 10.4 mph - N/A   Overcast
7:03 PM 71.6 °F 69.8 °F 94% 29.74 in 10.0 mi NW 10.4 mph 17.3 mph N/A   Overcast
7:22 PM 71.6 °F 69.8 °F 94% 29.74 in 10.0 mi NW 8.1 mph - N/A   Overcast
7:52 PM 72.0 °F 68.0 °F 87% 29.73 in 10.0 mi NNW 8.1 mph - N/A   Mostly Cloudy
8:05 PM 71.6 °F 68.0 °F 88% 29.74 in 10.0 mi NW 8.1 mph - N/A   Partly Cloudy
8:52 PM 71.1 °F 66.9 °F 87% 29.74 in 10.0 mi NW 8.1 mph - N/A   Mostly Cloudy
9:52 PM 68.0 °F 66.0 °F 93% 29.76 in 10.0 mi West 6.9 mph - N/A   Clear
10:52 PM 66.0 °F 64.0 °F 93% 29.75 in 10.0 mi West 6.9 mph - N/A   Clear
11:52 PM 66.0 °F 64.0 °F 93% 29.73 in 10.0 mi West 5.8 mph - N/A   Clear